Location: Poughquag
(41.6090°N, 73.6820°W)
Time: 03:04:08
(UTC-04:00)

Vanguard 1 Rocket - Pass Details

Date: 04 June 2020
Orbit: 653 x 4224 km, 34.3° (Epoch: 06 July)

Event Time Altitude Azimuth Distance (km) Brightness Sun altitude
Rises 23:12:05 0° 230° (SW) 8,450 12.2 -21.7°
Reaches altitude 10° 23:18:20 10° 226° (SW) 7,402 11.8 -22.1°
Maximum altitude 23:41:39 52° 159° (SSE) 3,847 10.1 -23.7°
Drops below altitude 10° 23:55:56 10° 89° (E) 4,787 10.9 -24.4°
Sets 23:58:57 0° 84° (E) 5,414 11.3 -24.6°
